Location: Cherry Springs State Park
(41.6616°N, 77.8240°W)
Time: 16:15:38
(UTC-04:00)

Amateur Radio Satellites - All Passes

Search period start: 25 August 2016 15:45
Search period end: 26 August 2016 15:45
Location: Cherry Springs State Park, 41.6616°N, 77.8240°W

Satellite Date Start Highest point End Downlink Frequencies (MHz)
Time Altitude Azimuth
ITUPSAT 1 25 Aug 15:49:59 15:54:46 87° 109° (ESE) 15:59:33 437.325
ISS 25 Aug 15:56:03 15:59:13 42° 29° (NNE) 16:02:22 145.825
KKS-1 25 Aug 15:56:26 15:57:42 11° 90° (E) 15:58:58 437.445
AO-85 25 Aug 16:12:59 16:16:42 31° 246° (WSW) 16:20:12 145.980
HORYU 2 25 Aug 16:16:05 16:19:01 17° 64° (ENE) 16:21:56 437.375
O/OREOS (USA 219) 25 Aug 16:19:24 16:22:35 19° 305° (NW) 16:25:49 437.305
YUBILEINY 25 Aug 16:21:57 16:26:56 16° 59° (ENE) 16:31:53 435.215
SWISSCUBE 25 Aug 16:24:50 16:29:12 37° 291° (WNW) 16:33:35 437.505
STARS 25 Aug 16:38:10 16:40:48 16° 92° (E) 16:43:27 437.465
BEESAT 25 Aug 16:42:32 16:46:35 28° 293° (WNW) 16:50:37 436.000
AO-7 25 Aug 17:01:44 17:09:20 38° 262° (W) 17:16:58 29.400- 29.500
GOMX 1 25 Aug 17:03:57 17:05:10 11° 57° (ENE) 17:06:23 467.674
BRITE-PL 25 Aug 17:11:43 17:15:38 25° 65° (ENE) 17:19:49 437.365/2234.400
MOZHAYETS 4 25 Aug 17:17:43 17:22:17 72° 284° (WNW) 17:26:50
KKS-1 25 Aug 17:30:16 17:34:44 69° 286° (WNW) 17:39:09 437.445
ITUPSAT 1 25 Aug 17:30:26 17:31:52 11° 301° (WNW) 17:33:19 437.325
ISS 25 Aug 17:32:50 17:35:31 23° 226° (SW) 17:38:12 145.825
Cubesat XI-IV 25 Aug 17:36:34 17:40:48 24° 64° (ENE) 17:45:03 437.490
CUTE-I 25 Aug 17:48:45 17:53:23 31° 66° (ENE) 17:58:02 437.470
HORYU 2 25 Aug 17:50:52 17:55:11 48° 260° (W) 17:59:31 437.375
LilacSat-2 25 Aug 17:55:19 17:58:31 25° 70° (ENE) 18:01:42 437.200
NOAA 15 25 Aug 17:57:44 18:02:44 47° 70° (ENE) 18:07:47 137.62
Cosmos 2491 25 Aug 17:57:59 18:05:14 31° 83° (E) 18:12:31 435.465 / 435.565
HO-68 25 Aug 18:01:44 18:03:28 11° 47° (NE) 18:05:12 435.675
NOAA 18 25 Aug 18:07:14 18:12:26 43° 68° (ENE) 18:17:39 137.9125
Cosmos 2504 25 Aug 18:09:39 18:15:14 23° 67° (ENE) 18:20:42 435.465 / 435.565
BEESAT 3 25 Aug 18:10:27 18:12:17 13° 40° (NE) 18:14:06 437.485
STARS 25 Aug 18:13:11 18:17:26 48° 288° (WNW) 18:21:38 437.465
YUBILEINY 25 Aug 18:16:34 18:25:23 77° 81° (E) 18:34:06 435.215
CUBESAT XI-V 25 Aug 18:30:52 18:35:36 85° 101° (E) 18:40:19 437.345
GOMX 1 25 Aug 18:37:13 18:42:12 77° 76° (ENE) 18:47:33 467.674
BRITE-PL 25 Aug 18:49:28 18:53:52 38° 265° (W) 18:58:38 437.365/2234.400
DOVE 4 25 Aug 18:56:15 19:01:14 56° 73° (ENE) 19:06:26 437.250
Cubesat XI-IV 25 Aug 19:15:29 19:20:35 45° 261° (W) 19:25:43 437.490
BEESAT 2 25 Aug 19:23:40 19:27:14 30° 49° (NE) 19:30:48 435.950
CUTE-I 25 Aug 19:28:30 19:33:20 34° 263° (W) 19:38:11 437.470
LilacSat-2 25 Aug 19:29:42 19:32:45 22° 265° (W) 19:35:50 437.200
SEEDS 25 Aug 19:29:44 19:32:22 17° 65° (ENE) 19:35:00 437.485
NOAA 15 25 Aug 19:38:46 19:42:44 22° 267° (W) 19:46:46 137.62
HO-68 25 Aug 19:42:40 19:49:37 55° 67° (ENE) 19:56:36 435.675
CANX-2 25 Aug 19:44:50 19:48:43 38° 72° (ENE) 19:52:38 2200.000
BEESAT 3 25 Aug 19:46:31 19:50:30 84° 237° (WSW) 19:54:27 437.485
NOAA 18 25 Aug 19:48:39 19:53:13 26° 265° (W) 19:57:49 137.9125
CUTE 1.7 + AOD 2 25 Aug 19:51:24 19:55:19 39° 72° (ENE) 19:59:15 437.475
Cosmos 2491 25 Aug 19:52:59 20:01:31 58° 283° (WNW) 20:10:09 435.465 / 435.565
CINEMA 3 25 Aug 19:54:40 19:59:37 63° 74° (ENE) 20:04:34 145.822/145.860
PCSat 25 Aug 20:00:08 20:01:55 11° 35° (NE) 20:03:42 145.827
Cosmos 2504 25 Aug 20:02:03 20:09:13 63° 267° (W) 20:16:15 435.465 / 435.565
AAUSAT CUBESAT 2 25 Aug 20:07:07 20:10:20 23° 68° (ENE) 20:13:34 437.432
CUBESAT XI-V 25 Aug 20:10:51 20:12:16 11° 300° (WNW) 20:13:42 437.345
COMPASS 1 25 Aug 20:12:14 20:15:54 32° 70° (ENE) 20:19:36 437.405
YUBILEINY 25 Aug 20:14:56 20:21:10 22° 281° (W) 20:27:22 435.215
GOMX 1 25 Aug 20:18:46 20:20:57 13° 273° (W) 20:23:12 467.674
CUBEBUG 2 25 Aug 20:29:11 20:33:36 41° 71° (ENE) 20:37:55 437.445
Oscar 11 25 Aug 20:29:13 20:32:02 17° 65° (ENE) 20:34:52 145.826/435.025
STRAND 1 25 Aug 20:30:24 20:35:31 72° 103° (ESE) 20:40:36 437.568
UWE-3 25 Aug 20:32:20 20:36:18 30° 69° (ENE) 20:40:13 435.000/436.395/437.385
FUNcube-1 25 Aug 20:33:11 20:36:14 18° 66° (ENE) 20:39:15 145.935
DOVE 4 25 Aug 20:35:48 20:39:17 18° 270° (W) 20:42:52 437.250
ZACube-1 25 Aug 20:52:19 20:56:14 30° 70° (ENE) 21:00:05 437.345
PRISM 25 Aug 20:53:41 20:55:36 13° 91° (E) 20:57:32 437.425
AIST 1 25 Aug 20:58:56 21:03:17 54° 79° (E) 21:07:35
BEESAT 2 25 Aug 21:01:38 21:04:58 25° 246° (WSW) 21:08:17 435.950
SEEDS 25 Aug 21:03:46 21:07:43 42° 262° (W) 21:11:42 437.485
AIST 2 25 Aug 21:15:18 21:18:37 22° 46° (NE) 21:21:55 435.215
CANX-2 25 Aug 21:21:53 21:24:44 18° 267° (W) 21:27:35 2200.000
CUTE 1.7 + AOD 2 25 Aug 21:28:32 21:31:19 17° 268° (W) 21:34:07 437.475
HO-68 25 Aug 21:31:33 21:37:37 29° 265° (W) 21:43:45 435.675
CINEMA 3 25 Aug 21:34:11 21:37:07 15° 270° (W) 21:40:03 145.822/145.860
PCSat 25 Aug 21:41:14 21:46:35 55° 57° (ENE) 21:51:52 145.827
AAUSAT CUBESAT 2 25 Aug 21:42:05 21:45:40 29° 264° (W) 21:49:16 437.432
COMPASS 1 25 Aug 21:48:28 21:51:32 20° 267° (W) 21:54:36 437.405
Cosmos 2491 25 Aug 21:58:26 22:00:37 11° 306° (NW) 22:02:49 435.465 / 435.565
HUMSAT D 25 Aug 21:58:58 22:02:41 32° 70° (ENE) 22:06:23 437.325/437.525
Oscar 11 25 Aug 22:03:43 22:07:49 44° 262° (W) 22:11:57 145.826/435.025
DELFI C3 25 Aug 22:04:39 22:08:34 79° 76° (ENE) 22:12:31 145.870
CUBEBUG 2 25 Aug 22:06:49 22:10:20 21° 267° (W) 22:13:48 437.445
FUNcube-1 25 Aug 22:07:53 22:12:10 43° 262° (W) 22:16:22 145.935
UWE-3 25 Aug 22:08:48 22:12:43 27° 265° (W) 22:16:34 435.000/436.395/437.385
STRAND 1 25 Aug 22:11:14 22:14:05 15° 300° (WNW) 22:16:55 437.568
PRISM 25 Aug 22:27:09 22:31:13 53° 287° (WNW) 22:35:18 437.425
AUBIESAT-1 25 Aug 22:27:59 22:32:04 32° 64° (ENE) 22:36:10 437.475
ZACube-1 25 Aug 22:28:47 22:32:29 25° 265° (W) 22:36:09 437.345
M-CUBED/EXP-1 PRIME 25 Aug 22:31:18 22:35:40 41° 66° (ENE) 22:40:06 437.505
GONETS M04 25 Aug 22:31:45 22:38:51 26° 66° (ENE) 22:45:54
UNISAT 6 25 Aug 22:35:50 22:38:49 18° 93° (E) 22:41:47 437.425
AIST 1 25 Aug 22:38:22 22:40:21 13° 276° (W) 22:42:19
AIST 2 25 Aug 22:53:18 22:57:16 41° 243° (WSW) 23:01:12 435.215
VELOX 1 25 Aug 23:08:52 23:11:57 19° 65° (ENE) 23:15:04 145.980
O/OREOS (USA 219) 25 Aug 23:10:53 23:12:41 12° 50° (NE) 23:14:29 437.305
ANTELSAT 25 Aug 23:12:01 23:16:10 45° 99° (E) 23:20:15 437.575/2403.000
Cosmos 2499 25 Aug 23:13:22 23:19:28 30° 71° (ENE) 23:25:32 435.465 / 435.565
CUBEBUG 1 25 Aug 23:16:10 23:19:48 26° 67° (ENE) 23:23:29 437.445
PCSat 25 Aug 23:25:32 23:29:32 21° 254° (WSW) 23:33:31 145.827
50 SAT 25 Aug 23:33:09 23:36:12 27° 70° (ENE) 23:39:16 437.505
DX 1 25 Aug 23:33:19 23:36:45 23° 66° (ENE) 23:40:12 434.975-435.025
HUMSAT D 25 Aug 23:35:11 23:38:21 21° 266° (W) 23:41:30 437.325/437.525
JAS-2 25 Aug 23:36:28 23:37:46 10° 87° (E) 23:39:06 435.910
QB50P1 25 Aug 23:37:45 23:39:21 12° 90° (E) 23:40:57 145.935-145.965
ESTCUBE 1 25 Aug 23:38:34 23:43:00 69° 75° (ENE) 23:47:29 437.505/2401.250
TIGRISAT 25 Aug 23:43:32 23:47:52 84° 284° (WNW) 23:52:06 435.000
SPROUT 25 Aug 23:44:31 23:47:48 22° 67° (ENE) 23:51:05 437.525
POPSAT HIP 1 25 Aug 23:46:47 23:49:15 15° 92° (E) 23:51:41 437.405
AISAT 25 Aug 23:56:02 00:00:25 61° 73° (ENE) 00:04:50 437.250
AUBIESAT-1 26 Aug 00:02:27 00:06:27 29° 260° (W) 00:10:29 437.475
M-CUBED/EXP-1 PRIME 26 Aug 00:06:38 00:10:16 23° 262° (W) 00:13:58 437.505
UNISAT 6 26 Aug 00:11:42 00:15:42 38° 289° (WNW) 00:19:39 437.425
TISAT 1 26 Aug 00:14:44 00:15:09 10° 61° (ENE) 00:15:33 437.305
QB50P2 26 Aug 00:15:30 00:19:22 34° 97° (E) 00:23:12 145.880/145.840
DUCHIFAT 1 26 Aug 00:16:11 00:19:51 28° 96° (E) 00:23:27 145.980
UKube-1 26 Aug 00:17:05 00:21:16 52° 72° (ENE) 00:25:30 .
POLYITAN 1 26 Aug 00:18:02 00:21:54 34° 97° (E) 00:25:44 437.675
GONETS M04 26 Aug 00:27:41 00:36:31 72° 266° (W) 00:45:16
NANOSAT C BR1 26 Aug 00:28:38 00:32:40 42° 99° (E) 00:36:38 145.865
CUSAT 1 26 Aug 00:31:33 00:34:17 65° 282° (WNW) 00:37:39 437.405
RS-15 26 Aug 00:36:58 00:45:23 24° 100° (E) 00:54:03 29.354- 29.394
VELOX 1 26 Aug 00:43:53 00:48:06 43° 261° (W) 00:52:22 145.980
SO-50 26 Aug 00:47:33 00:52:25 80° 122° (ESE) 00:57:15 436.795
O/OREOS (USA 219) 26 Aug 00:48:08 00:52:45 86° 249° (WSW) 00:57:21 437.305
ANTELSAT 26 Aug 00:49:48 00:52:31 17° 296° (WNW) 00:55:13 437.575/2403.000
CUBEBUG 1 26 Aug 00:52:09 00:55:58 29° 264° (W) 00:59:51 437.445
Cosmos 2499 26 Aug 01:06:06 01:12:46 47° 270° (W) 01:19:29 435.465 / 435.565
50 SAT 26 Aug 01:07:19 01:09:48 18° 266° (W) 01:12:18 437.505
DANDE 26 Aug 01:08:23 01:10:58 88° 86° (E) 01:13:39 436.750
DX 1 26 Aug 01:08:49 01:12:45 33° 263° (W) 01:16:44 434.975-435.025
QB50P1 26 Aug 01:11:20 01:15:29 58° 286° (WNW) 01:19:37 145.935-145.965
JAS-2 26 Aug 01:16:57 01:23:38 67° 102° (ESE) 01:31:05 435.910
ESTCUBE 1 26 Aug 01:18:57 01:20:17 11° 271° (W) 01:21:36 437.505/2401.250
SPROUT 26 Aug 01:19:35 01:23:31 34° 263° (W) 01:27:29 437.525
BUGSAT 1 26 Aug 01:20:03 01:24:12 64° 102° (ESE) 01:28:15 437.445
POPSAT HIP 1 26 Aug 01:21:14 01:25:16 45° 288° (WNW) 01:29:17 437.405
ITUPSAT 1 26 Aug 01:22:23 01:24:19 12° 60° (ENE) 01:26:16 437.325
AISAT 26 Aug 01:35:18 01:37:17 13° 270° (W) 01:39:15 437.250
TISAT 1 26 Aug 01:45:53 01:50:08 80° 257° (WSW) 01:54:25 437.305
QB50P2 26 Aug 01:51:48 01:54:57 21° 294° (WNW) 01:58:06 145.880/145.840
DUCHIFAT 1 26 Aug 01:52:01 01:55:25 24° 292° (WNW) 01:58:47 145.980
SWISSCUBE 26 Aug 01:54:10 01:58:11 28° 67° (ENE) 02:02:13 437.505
POLYITAN 1 26 Aug 01:54:21 01:57:29 20° 294° (WNW) 02:00:35 437.675
UKube-1 26 Aug 01:55:19 01:57:37 14° 268° (W) 01:59:56 .
NANOSAT C BR1 26 Aug 02:05:19 02:08:03 17° 295° (WNW) 02:10:47 145.865
BEESAT 26 Aug 02:11:09 02:15:30 37° 69° (ENE) 02:19:52 436.000
GONETS M04 26 Aug 02:28:03 02:31:36 13° 287° (WNW) 02:35:09
Oscar 19 26 Aug 02:29:14 02:34:23 59° 101° (E) 02:39:30 437.125/150
SO-50 26 Aug 02:30:11 02:33:28 18° 320° (NW) 02:36:44 436.795
RS-15 26 Aug 02:44:33 02:56:07 89° 301° (WNW) 03:08:22 29.354- 29.394
MOZHAYETS 4 26 Aug 02:45:46 02:47:28 12° 61° (ENE) 02:49:11
KKS-1 26 Aug 02:54:54 02:56:36 12° 61° (ENE) 02:58:20 437.445
ITUPSAT 1 26 Aug 02:56:43 03:01:29 79° 256° (WSW) 03:06:16 437.325
BUGSAT 1 26 Aug 02:57:32 02:59:00 12° 298° (WNW) 03:00:28 437.445
PHONESAT 2.4 26 Aug 02:59:31 03:01:49 20° 155° (SSE) 03:04:08 2401.200-2431.200
JAS-2 26 Aug 03:03:03 03:08:13 25° 297° (WNW) 03:13:50 435.910
AO-7 26 Aug 03:12:31 03:16:11 13° 88° (E) 03:19:49 29.400- 29.500
Gurwin Techsat 1B 26 Aug 03:23:09 03:28:30 85° 104° (ESE) 03:33:49 435.225
SWISSCUBE 26 Aug 03:31:41 03:35:53 31° 263° (W) 03:40:07 437.505
STARS 26 Aug 03:35:20 03:37:58 16° 63° (ENE) 03:40:36 437.465
ITAMSAT 1 26 Aug 03:39:08 03:43:53 36° 98° (E) 03:48:37 435.822/435.867
BEESAT 26 Aug 03:49:34 03:53:22 23° 266° (W) 03:57:10 436.000
Cosmos 2491 26 Aug 04:08:15 04:13:01 15° 58° (ENE) 04:17:46 435.465 / 435.565
Oscar 19 26 Aug 04:09:41 04:13:14 19° 298° (WNW) 04:16:47 437.125/150
MOZHAYETS 4 26 Aug 04:19:27 04:24:00 76° 257° (WSW) 04:28:35
KKS-1 26 Aug 04:28:05 04:32:33 74° 258° (WSW) 04:37:04 437.445
PHONESAT 2.4 26 Aug 04:34:54 04:37:51 58° 171° (S) 04:40:49 2401.200-2431.200
RS-15 26 Aug 05:00:00 05:10:27 34° 329° (NNW) 05:21:21 29.354- 29.394
AO-7 26 Aug 05:01:56 05:10:17 74° 106° (ESE) 05:18:33 29.400- 29.500
Gurwin Techsat 1B 26 Aug 05:05:07 05:07:42 14° 301° (WNW) 05:10:18 435.225
STARS 26 Aug 05:09:33 05:13:53 53° 259° (W) 05:18:15 437.465
ITAMSAT 1 26 Aug 05:18:49 05:23:13 29° 294° (WNW) 05:27:36 435.822/435.867
YUBILEINY 26 Aug 05:25:15 05:30:25 17° 76° (ENE) 05:35:34 435.215
CUBESAT XI-V 26 Aug 05:34:05 05:38:41 83° 74° (ENE) 05:43:19 437.345
HORYU 2 26 Aug 05:41:40 05:45:34 30° 97° (E) 05:49:25 437.375
Cosmos 2491 26 Aug 06:02:44 06:11:35 74° 80° (E) 06:20:25 435.465 / 435.565
CUTE-I 26 Aug 06:07:48 06:09:13 11° 88° (E) 06:10:38 437.470
STRAND 1 26 Aug 06:10:30 06:13:02 14° 60° (ENE) 06:15:34 437.568
PHONESAT 2.4 26 Aug 06:11:09 06:14:08 64° 186° (S) 06:17:06 2401.200-2431.200
NOAA 15 26 Aug 06:13:39 06:17:06 17° 91° (E) 06:20:32 137.62
AO-85 26 Aug 06:25:30 06:30:49 76° 120° (ESE) 06:35:51 145.980
NOAA 18 26 Aug 06:30:08 06:33:37 17° 92° (E) 06:37:05 137.9125
GOMX 1 26 Aug 06:39:33 06:44:03 26° 92° (E) 06:48:22 467.674
Cosmos 2504 26 Aug 06:49:00 06:54:51 21° 81° (E) 07:00:26 435.465 / 435.565
BRITE-PL 26 Aug 06:53:00 06:58:44 74° 102° (ESE) 07:04:21 437.365/2234.400
AO-7 26 Aug 06:55:42 07:02:18 27° 306° (NW) 07:08:52 29.400- 29.500
DOVE 4 26 Aug 06:56:43 06:59:46 16° 89° (E) 07:02:45 437.250
LilacSat-2 26 Aug 07:02:04 07:05:33 35° 97° (E) 07:09:01 437.200
YUBILEINY 26 Aug 07:16:59 07:25:50 87° 96° (E) 07:34:43 435.215
HORYU 2 26 Aug 07:18:21 07:22:00 26° 293° (WNW) 07:25:37 437.375
RS-15 26 Aug 07:18:56 07:28:10 24° 4° (N) 07:37:32 29.354- 29.394
Cubesat XI-IV 26 Aug 07:32:07 07:37:27 71° 103° (ESE) 07:42:45 437.490
SO-50 26 Aug 07:40:11 07:42:20 13° 35° (NE) 07:44:27 436.795
CUTE-I 26 Aug 07:44:36 07:49:57 88° 284° (WNW) 07:55:16 437.470
PRISM 26 Aug 07:45:06 07:45:41 10° 61° (ENE) 07:46:15 437.425
STRAND 1 26 Aug 07:46:26 07:51:32 79° 256° (WSW) 07:56:41 437.568
PHONESAT 2.4 26 Aug 07:47:42 07:50:14 25° 203° (SSW) 07:52:45 2401.200-2431.200
CINEMA 3 26 Aug 07:51:20 07:53:39 14° 89° (E) 07:55:54 145.822/145.860
NOAA 15 26 Aug 07:52:01 07:57:16 60° 288° (WNW) 08:02:29 137.62
Cosmos 2491 26 Aug 08:00:59 08:07:30 24° 280° (W) 08:14:01 435.465 / 435.565
AO-85 26 Aug 08:08:01 08:11:46 20° 318° (NW) 08:15:23 145.980
NOAA 18 26 Aug 08:09:18 08:14:43 64° 288° (WNW) 08:20:06 137.9125
GOMX 1 26 Aug 08:17:08 08:22:14 42° 290° (WNW) 08:27:08 467.674
BRITE-PL 26 Aug 08:32:51 08:36:32 18° 299° (WNW) 08:40:12 437.365/2234.400
DOVE 4 26 Aug 08:32:52 08:37:55 59° 287° (WNW) 08:42:39 437.250
LilacSat-2 26 Aug 08:37:13 08:39:34 16° 294° (WNW) 08:41:55 437.200
ISS 26 Aug 08:38:38 08:39:12 10° 129° (SE) 08:39:46 145.825
Cosmos 2504 26 Aug 08:38:51 08:47:24 78° 278° (W) 08:55:23 435.465 / 435.565
SEEDS 26 Aug 08:47:23 08:51:03 29° 96° (E) 08:54:43 437.485
HO-68 26 Aug 08:57:27 09:04:30 56° 101° (ESE) 09:11:29 435.675
CANX-2 26 Aug 09:04:51 09:09:06 77° 103° (ESE) 09:13:20 2200.000
CUTE 1.7 + AOD 2 26 Aug 09:11:19 09:15:34 79° 104° (ESE) 09:19:48 437.475
Cubesat XI-IV 26 Aug 09:13:44 09:16:55 16° 300° (WNW) 09:20:06 437.490
PRISM 26 Aug 09:16:18 09:20:22 74° 258° (WSW) 09:24:29 437.425
YUBILEINY 26 Aug 09:17:36 09:23:50 21° 298° (WNW) 09:30:07 435.215
SO-50 26 Aug 09:19:02 09:23:40 73° 56° (NE) 09:28:09 436.795
CUSAT 1 26 Aug 09:21:02 09:24:06 14° 66° (ENE) 09:27:26 437.405
AAUSAT CUBESAT 2 26 Aug 09:23:27 09:27:23 39° 98° (E) 09:31:18 437.432
CINEMA 3 26 Aug 09:26:43 09:31:12 55° 287° (WNW) 09:35:28 145.822/145.860
CUTE-I 26 Aug 09:27:01 09:29:11 13° 302° (WNW) 09:31:22 437.470
AIST 1 26 Aug 09:28:34 09:32:23 31° 90° (E) 09:36:15
COMPASS 1 26 Aug 09:29:36 09:33:44 60° 100° (E) 09:37:52 437.405
RS-15 26 Aug 09:33:53 09:45:23 41° 38° (NE) 09:56:45 29.354- 29.394
UNISAT 6 26 Aug 09:34:52 09:38:06 19° 65° (ENE) 09:41:18 437.425
BEESAT 3 26 Aug 09:38:45 09:40:57 15° 110° (ESE) 09:43:09 437.485
Oscar 11 26 Aug 09:50:39 09:54:30 31° 96° (E) 09:58:21 145.826/435.025
FUNcube-1 26 Aug 09:55:47 09:59:31 32° 96° (E) 10:03:14 145.935
CUBEBUG 2 26 Aug 09:56:14 10:00:32 87° 110° (ESE) 10:04:41 437.445
UWE-3 26 Aug 09:57:33 10:01:43 58° 100° (E) 10:05:47 435.000/436.395/437.385
ANTELSAT 26 Aug 10:10:35 10:14:56 42° 72° (ENE) 10:19:13 437.575/2403.000
ISS 26 Aug 10:11:54 10:15:10 89° 302° (WNW) 10:18:28 145.825
ZACube-1 26 Aug 10:16:02 10:20:10 60° 101° (E) 10:24:14 437.345
SEEDS 26 Aug 10:23:14 10:26:37 24° 292° (WNW) 10:30:01 437.485
QB50P1 26 Aug 10:31:44 10:32:31 10° 61° (ENE) 10:33:18 145.935-145.965
Cosmos 2504 26 Aug 10:37:30 10:42:02 15° 298° (WNW) 10:46:26 435.465 / 435.565
POPSAT HIP 1 26 Aug 10:40:17 10:42:16 13° 63° (ENE) 10:44:14 437.405
TIGRISAT 26 Aug 10:41:42 10:46:20 86° 76° (ENE) 10:50:54 435.000
CANX-2 26 Aug 10:43:46 10:44:19 10° 298° (WNW) 10:44:54 2200.000
HO-68 26 Aug 10:45:48 10:51:50 30° 300° (WNW) 10:57:49 435.675
BEESAT 2 26 Aug 10:52:49 10:56:37 49° 118° (ESE) 11:00:28 435.950
AAUSAT CUBESAT 2 26 Aug 10:59:45 11:02:33 18° 294° (WNW) 11:05:22 437.432
CUSAT 1 26 Aug 11:00:26 11:06:41 76° 80° (E) 11:14:19 437.405
SO-50 26 Aug 11:01:40 11:03:28 12° 253° (WSW) 11:05:16 436.795
AIST 1 26 Aug 11:06:38 11:10:01 22° 288° (WNW) 11:13:26
COMPASS 1 26 Aug 11:07:01 11:08:48 12° 297° (WNW) 11:10:33 437.405
QB50P2 26 Aug 11:08:20 11:11:58 27° 68° (ENE) 11:15:35 145.880/145.840
DUCHIFAT 1 26 Aug 11:08:25 11:11:46 23° 67° (ENE) 11:15:07 145.980
UNISAT 6 26 Aug 11:10:03 11:14:29 45° 261° (W) 11:18:52 437.425
POLYITAN 1 26 Aug 11:10:51 11:14:29 28° 69° (ENE) 11:18:08 437.675
BEESAT 3 26 Aug 11:14:25 11:18:12 48° 307° (NW) 11:22:03 437.485
DELFI C3 26 Aug 11:16:34 11:20:32 63° 284° (WNW) 11:24:29 145.870
HUMSAT D 26 Aug 11:17:01 11:21:03 58° 100° (E) 11:25:05 437.325/437.525
NANOSAT C BR1 26 Aug 11:20:51 11:24:40 33° 70° (ENE) 11:28:28 145.865
Oscar 11 26 Aug 11:27:04 11:30:28 23° 293° (WNW) 11:33:53 145.826/435.025
JAS-2 26 Aug 11:31:41 11:35:50 25° 63° (ENE) 11:40:12 435.910
ESTCUBE 1 26 Aug 11:32:16 11:34:45 14° 91° (E) 11:37:12 437.505/2401.250
FUNcube-1 26 Aug 11:32:28 11:35:35 21° 293° (WNW) 11:38:41 145.935
GONETS M04 26 Aug 11:33:58 11:41:00 28° 82° (E) 11:48:04
UWE-3 26 Aug 11:35:51 11:37:40 13° 297° (WNW) 11:39:28 435.000/436.395/437.385
DANDE 26 Aug 11:41:30 11:46:40 66° 80° (E) 11:53:28 436.750
AUBIESAT-1 26 Aug 11:41:50 11:44:42 18° 97° (E) 11:47:24 437.475
M-CUBED/EXP-1 PRIME 26 Aug 11:45:38 11:49:08 26° 99° (E) 11:52:23 437.505
RS-15 26 Aug 11:46:40 11:58:59 74° 243° (WSW) 12:11:03 29.354- 29.394
AISAT 26 Aug 11:48:22 11:49:45 11° 89° (E) 11:51:08 437.250
ANTELSAT 26 Aug 11:48:30 11:51:47 19° 267° (W) 11:55:03 437.575/2403.000
ISS 26 Aug 11:49:27 11:52:01 20° 343° (NNW) 11:54:34 145.825
Cosmos 2499 26 Aug 11:50:36 11:57:01 26° 84° (E) 12:03:05 435.465 / 435.565
ZACube-1 26 Aug 11:54:14 11:55:56 12° 297° (WNW) 11:57:37 437.345
QB50P1 26 Aug 12:03:22 12:07:39 78° 258° (WSW) 12:11:57 145.935-145.965
BUGSAT 1 26 Aug 12:09:32 12:13:35 45° 72° (ENE) 12:17:40 437.445
Oscar 19 26 Aug 12:11:03 12:12:50 12° 58° (ENE) 12:14:37 437.125/150
POPSAT HIP 1 26 Aug 12:13:17 12:17:31 61° 259° (W) 12:21:47 437.405
PCSat 26 Aug 12:22:58 12:28:09 48° 113° (ESE) 12:33:21 145.827
BEESAT 2 26 Aug 12:31:55 12:34:43 18° 316° (NW) 12:37:31 435.950
VELOX 1 26 Aug 12:33:40 12:37:44 33° 97° (E) 12:41:46 145.980
50 SAT 26 Aug 12:34:08 12:37:25 32° 97° (E) 12:40:44 437.505
CUBEBUG 1 26 Aug 12:39:48 12:44:07 49° 100° (E) 12:48:23 437.445
DUCHIFAT 1 26 Aug 12:43:29 12:47:17 31° 263° (W) 12:51:06 145.980
CUSAT 1 26 Aug 12:43:51 12:48:20 20° 272° (W) 12:53:20 437.405
QB50P2 26 Aug 12:44:05 12:47:42 26° 264° (W) 12:51:19 145.880/145.840
POLYITAN 1 26 Aug 12:46:38 12:50:14 26° 265° (W) 12:53:50 437.675
AIST 2 26 Aug 12:50:46 12:54:30 36° 116° (ESE) 12:58:19 435.215
HUMSAT D 26 Aug 12:54:30 12:56:11 12° 297° (WNW) 12:57:52 437.325/437.525
DX 1 26 Aug 12:56:19 13:00:27 39° 99° (E) 13:04:33 434.975-435.025
NANOSAT C BR1 26 Aug 12:57:08 13:00:26 21° 266° (W) 13:03:44 145.865
SPROUT 26 Aug 13:04:59 13:08:59 37° 98° (E) 13:12:56 437.525
Gurwin Techsat 1B 26 Aug 13:06:46 13:10:21 19° 62° (ENE) 13:13:57 435.225
ESTCUBE 1 26 Aug 13:07:26 13:11:52 55° 287° (WNW) 13:16:18 437.505/2401.250
AUBIESAT-1 26 Aug 13:15:33 13:19:18 34° 296° (WNW) 13:22:48 437.475
JAS-2 26 Aug 13:15:52 13:20:42 40° 263° (W) 13:25:49 435.910
AO-85 26 Aug 13:19:50 13:20:36 10° 33° (NNE) 13:21:21 145.980
M-CUBED/EXP-1 PRIME 26 Aug 13:20:02 13:23:36 26° 298° (WNW) 13:26:54 437.505
AISAT 26 Aug 13:22:13 13:26:41 68° 287° (WNW) 13:31:05 437.250
DANDE 26 Aug 13:25:38 13:29:16 18° 269° (W) 13:33:28 436.750
ISS 26 Aug 13:27:28 13:29:24 15° 3° (N) 13:31:20 145.825
GONETS M04 26 Aug 13:28:29 13:37:07 63° 281° (WNW) 13:45:54
TISAT 1 26 Aug 13:30:54 13:33:23 15° 92° (E) 13:35:51 437.305
UKube-1 26 Aug 13:39:39 13:44:01 87° 278° (W) 13:48:20 .
Cosmos 2499 26 Aug 13:41:28 13:49:36 62° 281° (W) 13:57:10 435.465 / 435.565
Oscar 19 26 Aug 13:46:10 13:51:19 86° 75° (ENE) 13:56:33 437.125/150
BUGSAT 1 26 Aug 13:46:36 13:49:10 16° 268° (W) 13:51:45 437.445
RS-15 26 Aug 14:02:11 14:09:13 18° 264° (W) 14:16:12 29.354- 29.394
PCSat 26 Aug 14:07:10 14:11:45 28° 312° (NW) 14:16:23 145.827
50 SAT 26 Aug 14:08:26 14:10:46 16° 293° (WNW) 14:13:06 437.505
VELOX 1 26 Aug 14:10:28 14:14:01 23° 294° (WNW) 14:17:32 145.980
AO-7 26 Aug 14:11:04 14:17:19 24° 52° (NE) 14:23:33 29.400- 29.500
CUBEBUG 1 26 Aug 14:17:11 14:20:00 17° 296° (WNW) 14:22:48 437.445
AIST 2 26 Aug 14:29:42 14:33:04 24° 314° (NW) 14:36:29 435.215
DX 1 26 Aug 14:33:11 14:36:22 20° 295° (WNW) 14:39:32 434.975-435.025
SPROUT 26 Aug 14:41:33 14:44:39 20° 294° (WNW) 14:47:43 437.525
Gurwin Techsat 1B 26 Aug 14:44:33 14:49:48 61° 259° (W) 14:55:05 435.225
ITAMSAT 1 26 Aug 14:57:09 15:02:13 57° 72° (ENE) 15:07:17 435.822/435.867
ITUPSAT 1 26 Aug 14:57:27 15:01:25 26° 95° (E) 15:05:22 437.325
AO-85 26 Aug 14:57:47 15:02:02 62° 54° (NE) 15:05:59 145.980
O/OREOS (USA 219) 26 Aug 15:00:26 15:04:55 75° 294° (WNW) 15:09:27 437.305
ISS 26 Aug 15:03:46 15:06:40 28° 23° (NNE) 15:09:34 145.825
TISAT 1 26 Aug 15:05:14 15:09:16 45° 288° (WNW) 15:13:14 437.305
Oscar 19 26 Aug 15:29:54 15:31:18 11° 272° (W) 15:32:42 437.125/150
SWISSCUBE 26 Aug 15:30:48 15:35:33 64° 102° (ESE) 15:40:16 437.505
GONETS M04 26 Aug 15:32:38 15:36:02 12° 305° (NW) 15:39:28
